CAPE
6 6 8 10 8 2 0 0 0 0 0 0 0 0 0 0 0 0 0 0 0 0 0 0 2 0 0 0 0 0 0 0 0 0 0 0 0 0 0 0 0 0 0 0 0 0 0
16 16 15 14 12 8 3 5 5 0 0 0 0 0 0 3 0 0 0 1 2 0 0 3 0 0 0 0 0 0 0 0 0 0 0 0 0 0 0 0 0 0 0 0 0 0 0
48 33 29 20 12 16 13 8 8 8 3 0 0 0 7 0 0 0 1 3 1 0 0 7 0 0 0 0 0 0 0 0 0 0 0 0 0 0 0 0 0 0 0 0 0 0 0
66 71 18 32 28 18 16 9 15 9 8 1 0 10 0 0 0 0 1 1 1 1 1 17 0 0 0 0 0 0 0 0 0 0 0 0 0 0 0 0 0 0 0 0 0 0 0
57 55 38 36 31 29 22 18 25 14 5 19 18 8 0 0 0 0 0 5 4 13 23 1 0 0 0 0 0 0 0 0 0 0 0 0 0 0 0 0 0 0 0 0 0 0 0
36 30 18 31 51 36 31 25 27 24 22 18 14 0 0 0 0 0 0 1 9 2 0 0 0 0 0 0 0 0 0 0 0 0 0 0 0 0 0 0 0 0 0 0 0 0 0
62 67 29 38 60 33 21 17 38 23 26 20 1 0 5 0 0 0 0 0 0 0 6 0 0 0 0 0 0 0 0 0 0 0 0 0 0 0 0 0 0 0 0 0 0 0 0
121 127 63 58 45 34 30 37 39 23 27 16 0 3 1 4 0 2 0 0 0 0 0 0 0 0 0 0 0 0 0 0 0 0 0 0 0 0 0 0 0 0 0 0 0 0 0
103 132 101 95 88 61 44 43 33 30 20 15 0 0 2 0 2 16 2 0 0 0 0 0 0 0 0 0 0 0 0 0 0 0 0 0 0 0 0 0 0 0 0 0 0 0 0
134 125 112 107 96 73 69 52 39 41 30 16 0 6 0 0 2 0 2 0 0 0 0 0 0 0 0 0 0 0 0 0 0 0 0 0 0 0 0 0 0 0 0 0 0 0 0
144 145 116 117 104 82 65 54 57 55 43 32 10 0 0 4 0 5 0 0 0 0 0 0 0 0 0 0 0 0 0 0 0 0 0 0 0 0 0 0 0 0 0 0 0 0 0
131 157 168 141 116 97 77 59 56 68 49 35 26 0 0 0 6 0 0 0 0 0 0 0 0 0 0 0 0 0 0 0 0 0 0 0 0 0 0 0 0 0 0 0 0 0 0
61 135 152 158 114 96 98 85 58 64 65 65 46 9 0 0 0 0 0 17 0 0 0 0 0 0 0 0 0 0 0 0 0 0 0 0 0 0 0 0 0 0 0 7 0 0 0
72 84 149 160 163 134 101 84 74 66 71 74 52 23 1 0 0 0 0 67 0 0 0 0 0 0 0 0 0 0 0 0 0 0 0 0 0 0 0 0 0 0 0 8 0 0 0
74 129 64 79 138 152 98 62 61 64 77 70 31 0 3 2 0 11 23 21 0 0 0 0 0 0 0 0 0 0 0 0 0 0 0 0 0 0 0 0 0 0 0 0 0 0 0
57 124 155 74 56 143 78 77 73 77 77 56 0 0 10 0 0 50 31 3 0 0 0 0 0 0 0 0 0 0 0 0 0 0 0 0 0 0 0 0 0 0 0 0 1 2 0
56 42 49 151 67 74 63 57 73 96 97 10 1 20 0 0 47 58 21 0 0 0 0 0 0 0 0 0 0 0 0 0 0 0 0 0 0 0 0 0 0 0 0 0 0 0 0
100 4 22 206 240 116 85 98 63 98 96 12 13 20 0 1 48 30 26 0 0 0 0 0 0 0 0 0 0 0 0 0 0 0 0 0 1 0 0 0 0 0 0 0 0 0 0
136 24 0 139 163 77 56 82 142 193 137 28 25 8 0 3 40 3 6 10 0 0 1 3 0 3 0 8 5 0 0 0 0 2 1 2 0 2 0 0 0 0 0 0 0 0 0
141 38 32 81 71 97 78 93 139 151 179 27 1 0 0 4 10 0 6 6 9 16 24 21 21 11 5 1 0 0 0 0 0 0 11 0 0 1 0 0 0 0 0 0 7 1 0
171 24 169 73 56 128 232 174 161 158 157 17 2 0 0 0 2 4 15 0 2 7 25 28 39 14 5 22 0 0 0 0 0 0 0 0 16 0 0 0 0 0 0 0 14 0 0
70 76 56 176 299 321 244 225 170 142 160 53 0 1 13 0 1 15 18 0 0 0 12 29 9 0 14 14 0 0 0 0 0 0 0 0 0 0 0 0 2 0 0 0 0 4 2
122 7 266 181 190 192 162 236 211 196 104 4 11 3 0 0 0 3 1 0 0 2 0 0 3 30 9 0 0 0 0 0 0 0 0 0 0 0 0 0 0 13 0 0 0 0 0
16 42 25 86 148 153 160 191 147 178 46 3 11 2 2 0 0 0 0 0 0 0 0 0 0 1 0 0 0 0 0 0 0 0 0 0 0 0 0 0 26 0 0 0 0 0 0
22 20 36 41 97 97 144 215 212 220 120 0 1 7 7 0 0 7 1 0 0 0 0 0 0 3 0 0 44 30 2 0 1 1 0 0 0 0 0 0 0 0 0 0 0 0 0
33 38 49 67 106 108 151 138 113 153 130 0 0 2 17 0 0 0 0 0 0 0 0 0 0 0 0 15 17 26 15 5 2 2 0 0 0 0 1 0 0 0 0 0 0 0 0
7 3 3 22 64 103 96 110 139 158 122 9 4 1 14 37 0 0 59 19 0 0 0 1 1 26 0 2 1 7 3 0 0 0 1 2 0 0 0 0 0 0 0 0 0 0 0
26 19 7 5 8 39 100 154 153 164 167 44 6 0 2 31 0 0 3 19 40 1 5 0 6 1 1 1 7 0 0 0 0 0 0 0 0 0 0 0 0 0 0 0 0 0 0
17 7 12 20 8 44 38 87 134 140 143 59 2 0 0 32 16 0 0 0 0 0 0 0 0 0 0 0 0 0 2 0 0 0 0 0 0 0 0 0 0 0 0 0 0 0 0
CIN
0 0 0 0 0 -1 0 0 0 0 0 0 0 0 0 0 0 0 0 0 0 0 0 0 0 0 0 0 0 0 0 0 0 0 0 0 0 0 0 0 0 0 0 0 0 0 0
0 0 0 0 -1 0 0 0 -2 0 0 0 0 0 0 0 0 0 0 -1 -1 0 0 -2 0 0 0 0 0 0 0 0 0 0 0 0 0 0 0 0 0 0 0 0 0 0 0
0 0 0 -1 -1 -1 -2 -3 -4 -2 -1 0 0 0 0 0 0 0 -2 -1 0 -4 -3 -4 -1 0 0 0 0 0 0 0 0 0 0 0 0 0 0 0 0 0 0 0 0 0 0
0 0 -1 -4 -5 -4 -2 -5 -2 -1 -1 0 0 0 0 0 0 0 -2 -4 -1 -1 0 -7 0 0 0 0 0 0 0 0 0 0 0 0 0 0 0 0 0 0 0 0 0 0 0
0 -1 -1 -2 -4 -3 -3 -3 -2 -1 -1 0 -1 -1 0 0 0 0 0 -11 -4 -3 -7 -16 0 0 0 0 0 0 0 0 0 0 0 0 0 0 0 0 0 0 0 0 0 0 0
0 0 -3 0 -1 -1 -2 -4 -4 -3 -1 -1 -2 0 0 0 0 0 0 -4 -12 -28 -16 0 0 0 0 0 0 0 0 0 0 0 0 0 0 0 0 0 0 0 0 0 0 0 0
-2 0 0 0 -8 -2 -3 -3 -2 -6 -2 -2 -4 0 -1 0 0 0 0 0 0 0 -8 0 0 0 0 0 0 0 0 0 0 0 0 0 0 0 0 0 0 0 0 0 0 0 0
-2 -1 -3 -9 -42 -41 -2 -1 -2 -4 -4 -4 0 0 0 0 -1 -1 0 0 0 0 0 0 0 0 0 0 0 0 0 0 0 0 0 0 0 0 0 0 0 0 0 0 0 0 0
-3 -1 -3 -10 0 0 -2 -1 -4 -3 -5 -3 0 0 0 0 -4 0 -6 0 0 0 0 0 0 0 0 0 0 0 0 0 0 0 0 0 0 0 0 0 0 0 0 0 0 0 0
-2 -2 -4 -8 -8 -1 -25 0 0 -1 -3 -2 0 -1 0 0 -1 -2 0 0 0 0 0 0 0 0 0 0 0 0 0 0 0 0 0 0 0 0 0 0 0 0 0 0 0 0 0
-1 -7 -5 -7 -15 -27 -4 -11 -1 0 -1 -1 -1 0 0 -6 0 -1 0 0 0 0 0 0 0 0 0 0 0 0 0 0 0 0 0 0 0 0 0 0 0 0 0 0 0 0 0
0 0 -3 -7 -5 -18 -40 -7 -39 -57 -2 -1 -1 0 0 -1 0 0 0 0 0 0 0 0 0 0 0 0 0 0 0 0 0 0 0 0 0 0 0 0 0 0 0 0 0 0 0
-6 0 -1 -3 -9 -13 -26 -49 -10 -14 -48 -1 -1 -1 0 0 0 0 0 -8 0 0 0 0 0 0 0 0 0 0 0 0 0 0 0 0 0 0 0 0 0 0 0 -4 -2 0 0
-10 -15 0 -1 -2 -5 -11 -42 -8 -5 -2 -2 -2 -1 0 0 0 0 -7 0 0 0 0 0 0 0 0 0 0 0 0 0 0 0 0 0 0 0 0 0 0 0 0 -7 0 0 0
-3 -1 -36 -5 -2 -1 -13 -40 -11 -14 -4 -6 -3 0 -1 -3 0 -3 -4 0 0 0 0 0 0 0 0 0 0 0 0 0 0 0 0 0 0 0 0 0 0 0 0 0 0 0 0
-6 0 0 -20 -8 -1 -5 -10 -9 -9 -15 -6 0 0 -3 0 0 0 -2 -1 0 0 0 0 0 0 0 0 0 0 0 0 0 0 0 0 0 0 0 0 0 0 0 0 0 -9 0
-4 -8 0 -4 -34 -4 -3 -2 -6 -9 -10 -30 -15 -1 0 0 -1 -2 -2 -1 0 0 0 0 0 0 0 0 0 0 0 0 0 0 0 0 0 0 0 0 0 0 0 0 0 0 0
-12 -10 -4 0 0 -2 -4 -3 -4 -5 -7 -20 -4 0 0 0 -4 -7 -32 0 0 0 0 0 0 0 0 0 0 0 0 0 0 0 0 0 -103 -9 0 0 0 0 0 0 0 0 0
0 -36 0 -5 0 0 0 -2 -6 -3 -1 -2 -3 -4 0 0 0 -9 -5 0 0 -1 0 -8 0 -4 0 -33 -10 0 0 0 0 -15 -15 -38 0 -14 0 0 0 0 0 0 0 0 0
0 -24 0 -3 0 0 -8 -4 -4 -6 0 -16 0 -3 0 0 -14 0 -10 0 -5 -2 -1 -11 -4 -7 -7 -7 0 0 0 0 0 0 -156 -19 0 -14 0 0 0 0 0 -38 -27 -10 0
0 -38 0 0 -38 -6 0 0 -2 -5 -3 -10 -1 0 0 0 0 -1 -30 -1 -2 0 -5 -1 0 -11 -14 -5 -6 0 0 0 0 0 0 0 -26 0 0 0 0 0 0 0 -2 0 0
-2 0 0 0 0 0 0 0 -3 -5 -3 0 0 0 0 0 0 0 0 -11 0 0 -3 0 -1 0 -23 -8 0 0 0 0 0 0 0 0 0 0 0 0 -60 -1 0 0 0 0 0
0 -12 0 0 0 0 -2 0 0 -2 -3 0 0 0 0 0 0 0 0 0 0 -1 0 0 -5 -7 -7 0 0 0 0 0 -18 0 0 0 0 0 0 0 0 0 0 0 0 0 0
0 -1 -3 -7 -1 0 0 0 -2 -3 -2 0 0 0 0 0 -2 0 0 0 0 0 0 0 0 -16 0 0 0 0 0 0 0 0 0 0 0 0 0 0 0 0 0 0 0 0 0
0 0 0 -21 0 0 0 0 0 -1 -4 0 -2 0 0 0 -1 -15 -3 0 0 0 0 0 -1 -12 0 -3 0 0 -5 0 0 0 0 0 0 0 0 0 0 0 0 0 0 0 0
0 -1 0 -1 0 0 -1 0 -1 -2 -1 0 0 -20 -5 0 0 0 -2 0 0 0 0 0 0 -1 0 -5 -4 0 -4 -16 0 0 0 0 0 0 0 0 0 0 0 0 0 0 0
0 -1 0 0 0 -1 -2 0 -1 -2 -1 -9 -15 -14 -1 0 0 0 -1 -13 -2 0 0 -7 -1 0 -8 -11 -8 -2 -3 0 0 0 0 0 0 0 0 0 0 0 0 0 0 0 0
0 0 0 0 -1 -10 0 0 0 0 0 -4 -7 0 -1 0 0 0 -30 -32 -18 0 -5 0 -1 -1 0 -1 -7 -3 0 0 0 0 0 0 0 0 0 0 0 0 0 0 0 0 0
0 0 0 0 0 -4 -17 -3 0 0 -1 -3 -6 -8 0 -7 0 0 0 0 -1 0 0 0 -1 0 0 0 -1 0 0 0 0 0 0 0 0 0 0 0 0 0 0 0 0 0 0
Wind_Speed
8 10 11 11 12 10 10 9 7 7 6 4 3 5 5 6 5 5 5 5 6 9 9 9 3 6 5 4 10 2 8 5 3 3 4 2 2 2 3 1 4 3 3 6 8 7 6
10 9 9 9 9 10 10 9 8 6 6 5 4 4 5 5 6 6 5 5 7 7 9 7 1 4 3 3 2 3 7 4 5 3 1 2 2 3 2 1 2 1 4 7 6 10 7
14 14 13 11 10 10 9 8 8 7 6 6 5 4 4 5 6 5 7 6 7 7 7 2 3 2 1 17 1 7 5 1 2 2 3 1 1 1 2 2 1 3 5 7 5 3 5
15 17 15 12 11 10 9 8 8 8 7 7 6 5 4 5 5 5 7 6 5 3 4 9 4 2 10 3 4 8 4 2 4 4 3 5 3 0 2 1 6 4 4 5 4 5 2
15 14 12 12 12 11 11 10 10 9 7 6 7 5 4 4 4 4 5 7 4 3 10 8 3 2 12 8 4 5 6 4 6 5 4 1 2 3 0 4 5 5 2 2 9 5 4
17 17 16 15 13 13 12 11 11 9 7 6 5 4 4 4 4 4 4 3 9 9 5 1 1 2 6 3 3 3 3 2 3 8 3 3 4 2 2 5 6 5 3 3 5 7 8
19 18 16 15 15 16 16 14 12 10 9 8 5 3 3 3 3 3 7 4 2 1 2 10 7 5 4 7 3 3 4 4 3 4 6 4 4 9 13 7 5 5 3 3 5 10 7
19 19 18 17 17 16 15 13 11 9 7 7 4 2 2 3 4 6 2 3 4 2 9 17 16 11 4 5 5 3 9 6 5 5 6 4 6 10 4 5 5 6 2 6 6 7 6
18 19 19 19 18 17 16 14 10 10 8 7 4 3 1 2 0 4 2 5 1 2 4 7 7 7 6 9 8 8 10 5 4 6 6 6 4 5 7 4 6 5 5 4 8 5 5
20 19 20 20 20 19 17 15 14 11 10 8 6 4 3 3 3 3 6 6 2 4 4 7 5 6 5 8 6 9 9 7 3 10 7 5 5 4 3 5 6 3 6 7 5 1 3
21 22 21 21 21 19 19 17 15 12 11 9 8 7 5 5 1 3 3 7 3 4 3 3 5 4 7 7 1 2 1 3 9 7 7 7 3 4 6 11 6 7 4 4 4 3 2
21 21 21 24 23 21 20 19 16 14 11 11 10 9 6 1 2 2 2 5 3 8 10 3 5 5 6 3 2 4 1 4 5 5 1 7 1 6 8 2 6 5 4 3 4 4 4
20 21 23 21 20 20 20 20 19 15 13 11 11 11 7 3 4 6 2 3 3 5 3 5 5 6 3 5 4 5 5 7 7 6 8 1 9 5 3 3 4 3 5 3 4 1 6
20 21 20 23 22 20 19 18 16 15 14 12 11 10 5 4 5 5 3 3 8 5 6 4 4 5 6 6 4 5 8 6 6 2 4 6 3 7 6 17 8 6 8 5 6 3 3
23 22 21 18 22 23 20 18 17 17 15 13 10 2 3 5 10 4 5 9 9 5 4 2 3 3 4 5 4 4 8 8 9 12 9 6 4 2 4 3 10 5 6 2 1 1 1
23 20 22 24 22 21 19 19 18 17 16 16 4 2 4 6 10 6 8 14 10 4 2 5 6 5 6 5 7 7 8 7 6 11 4 5 1 5 4 5 4 6 8 4 1 4 5
20 19 20 22 26 26 21 17 16 18 18 17 4 2 2 5 9 6 13 13 14 3 6 2 3 2 2 1 7 4 6 3 6 6 10 6 5 2 7 7 10 3 4 2 3 3 4
20 17 19 25 22 19 18 18 18 18 21 13 5 5 2 6 9 6 14 18 11 6 5 7 2 5 4 3 1 1 4 4 2 5 8 6 5 10 13 3 5 3 5 7 4 5 4
20 18 19 26 22 18 18 17 17 19 24 6 4 3 1 2 9 7 10 20 22 14 7 4 8 6 3 3 3 6 6 3 6 7 8 6 1 1 5 4 2 7 7 10 4 2 15
21 20 20 17 19 22 21 18 17 20 26 7 4 5 2 3 1 10 12 9 11 7 16 4 3 5 5 8 4 5 2 2 1 3 1 6 5 7 9 4 4 4 7 11 12 6 4
21 19 28 25 25 23 21 18 17 18 26 7 5 4 4 6 10 11 11 6 15 11 9 10 6 8 6 5 5 8 5 1 1 3 3 5 8 6 6 5 5 5 7 8 16 17 10
23 18 24 22 22 20 18 17 17 18 21 8 5 5 2 3 11 12 14 11 9 10 5 6 12 6 12 12 10 3 7 5 6 3 4 2 3 4 4 7 11 10 11 9 13 10 8
15 15 25 22 21 21 19 17 16 17 14 2 2 2 5 6 5 9 13 15 13 7 5 10 9 7 10 13 7 6 4 5 7 7 7 6 5 4 6 4 2 9 18 13 6 4 5
7 15 15 20 18 18 17 17 18 16 18 3 2 1 3 4 6 9 5 13 17 12 14 4 13 13 5 7 5 4 2 4 8 11 8 7 5 3 2 4 11 1 4 5 8 4 4
6 9 11 14 13 15 16 16 17 18 21 3 2 3 2 2 4 5 5 3 5 10 18 11 13 4 5 3 3 4 3 3 4 7 11 8 6 3 3 5 4 3 5 6 8 6 5
8 9 9 11 13 14 15 15 16 17 20 4 3 3 1 4 6 5 8 9 7 4 2 6 3 5 5 3 3 7 6 2 5 6 8 5 4 5 3 4 6 6 1 3 2 6 10
7 8 8 10 11 14 15 15 17 17 18 6 3 5 3 2 3 5 5 7 6 5 3 2 5 5 5 5 3 5 8 4 8 8 7 4 3 8 4 4 6 4 5 4 6 7 11
11 10 12 14 15 17 16 17 17 18 18 9 3 7 6 2 5 4 4 5 5 4 5 4 3 3 3 8 5 4 4 5 3 4 6 8 8 5 3 3 8 4 3 6 4 3 7
12 14 18 23 23 22 20 19 18 18 19 15 3 4 5 2 2 2 4 4 4 2 4 5 3 4 5 3 4 4 2 1 5 4 3 5 7 7 8 7 1 2 1 1 3 5 4
Wind_Direction
208 204 196 193 191 192 194 195 198 203 229 235 242 271 265 280 309 320 324 328 345 328 324 323 318 3 24 11 252 202 31 8 23 13 41 71 87 132 168 127 317 250 317 330 300 290 258
210 213 217 205 201 205 209 200 189 206 229 232 252 264 263 273 294 306 307 302 331 321 312 328 68 340 55 264 256 90 38 26 61 37 41 132 154 171 141 120 151 7 290 284 280 285 266
214 209 196 203 201 213 221 204 198 202 219 231 242 252 258 274 287 292 290 307 316 301 315 265 126 8 297 245 44 327 331 205 96 21 333 236 36 106 151 315 40 293 329 318 278 307 295
226 208 196 202 209 208 211 206 212 214 210 227 240 239 251 272 281 290 287 280 305 307 306 132 132 53 256 254 278 287 147 276 213 200 210 276 313 171 195 325 20 5 47 351 306 337 305
209 206 208 210 209 212 210 208 217 209 216 217 224 239 264 274 272 275 288 303 272 95 112 121 80 108 263 305 266 256 156 174 144 146 210 270 149 163 79 88 18 8 267 320 321 337 325
209 214 214 217 216 211 210 210 213 210 205 218 212 242 247 273 292 270 315 120 97 96 104 99 68 352 273 258 258 115 170 190 129 123 115 136 53 117 73 103 222 185 190 262 266 300 330
212 216 218 225 219 202 212 218 216 204 213 192 212 229 256 273 278 246 107 90 69 336 236 199 198 241 300 304 280 186 157 120 93 106 163 174 139 212 221 186 144 107 157 239 265 279 300
220 213 210 213 212 212 218 215 213 202 211 180 199 211 274 295 285 186 122 180 210 182 289 227 237 258 272 26 340 252 135 144 154 178 138 92 238 226 130 161 194 223 258 269 282 271 297
231 223 214 210 216 208 207 211 206 208 192 180 198 182 220 298 315 150 242 216 149 127 261 277 198 226 213 168 226 241 167 148 142 156 190 154 227 158 166 169 204 185 195 206 246 314 292
235 228 220 219 216 207 202 205 197 203 191 182 187 188 175 241 149 159 230 235 293 37 28 257 215 249 166 134 242 202 188 146 189 180 136 223 248 137 143 221 179 253 204 208 245 308 271
236 227 227 223 220 215 208 198 197 192 183 187 178 175 202 210 181 171 265 146 132 66 348 141 147 140 150 182 326 28 186 101 166 157 125 241 197 192 195 231 142 227 174 179 153 199 350
246 236 225 221 221 217 209 201 197 189 190 184 180 179 182 191 232 245 103 117 66 46 248 199 124 170 143 225 313 88 131 60 144 115 52 209 121 164 199 163 172 126 93 72 77 125 241
254 243 232 218 210 209 208 202 194 192 189 193 182 180 172 158 219 148 157 150 120 191 323 180 179 170 180 170 201 129 179 171 157 143 230 161 242 227 152 107 47 128 120 307 322 212 232
265 245 237 223 216 207 201 194 190 187 193 197 180 165 223 211 257 148 125 164 218 220 221 332 147 135 175 156 228 150 129 172 264 112 121 169 294 156 203 211 178 180 175 205 245 209 233
269 255 232 239 229 209 196 192 194 193 190 190 137 147 218 207 213 167 182 193 225 192 193 220 343 145 205 224 167 154 183 190 204 180 182 161 258 146 171 133 145 189 203 193 261 166 262
272 274 248 219 228 203 193 190 191 193 187 148 133 183 211 196 164 176 200 214 226 224 19 31 207 178 208 211 167 169 180 197 203 183 184 195 262 196 148 103 42 165 163 105 202 242 231
248 257 283 229 211 209 191 197 198 195 175 144 113 200 234 149 154 196 213 226 228 213 34 205 249 301 223 156 187 201 217 250 198 197 191 143 157 193 118 200 171 140 199 137 151 185 224
261 256 252 231 204 194 191 191 196 202 170 142 143 213 174 170 191 187 212 214 255 236 243 253 329 233 221 218 298 245 223 249 114 142 169 194 176 229 216 144 166 179 213 172 184 217 224
249 252 260 227 183 194 200 191 199 198 168 145 179 188 22 205 202 202 223 233 236 260 244 245 220 207 199 222 242 201 211 264 173 156 168 176 219 271 330 354 356 212 207 216 198 121 220
253 243 236 203 189 191 196 183 190 191 170 151 136 178 229 203 191 215 209 223 223 215 233 281 266 231 221 241 222 267 226 265 269 223 56 151 181 184 234 184 139 200 223 223 213 233 208
263 241 229 208 196 193 187 178 183 188 182 163 181 194 188 160 202 210 206 246 220 229 199 211 237 243 220 230 206 230 210 200 219 273 157 157 234 206 232 198 180 218 231 217 219 232 218
262 236 228 205 198 193 186 180 181 185 186 206 169 159 151 124 189 186 204 202 215 227 230 217 226 190 219 232 227 263 219 178 206 171 174 202 227 162 264 220 224 241 233 219 233 236 245
237 235 216 189 192 191 187 184 189 182 166 110 174 249 115 178 153 190 214 220 223 175 246 234 241 228 241 249 234 268 231 254 241 210 190 170 159 159 247 184 209 255 245 221 193 220 231
231 214 220 182 187 189 190 187 194 189 176 132 137 100 121 163 179 204 181 209 231 215 227 222 220 223 231 97 82 53 357 300 247 217 179 158 171 181 223 132 232 258 313 260 225 166 172
202 214 182 182 191 193 197 197 189 189 182 117 159 140 142 149 177 183 213 210 223 233 242 245 243 180 124 95 170 225 220 255 227 209 207 149 150 184 197 214 316 244 221 166 173 245 162
195 193 187 186 195 200 202 197 193 189 182 126 156 113 165 132 226 185 200 218 212 208 294 234 231 136 110 160 209 227 213 172 200 158 193 124 141 175 153 183 222 243 107 114 74 281 173
217 207 207 206 209 212 210 201 199 197 192 156 185 160 124 269 239 145 186 189 171 184 194 198 162 159 138 171 204 236 215 178 171 174 167 154 169 198 162 214 283 220 153 132 113 246 151
242 224 241 232 232 217 212 209 208 204 200 173 194 188 170 215 275 218 208 177 172 193 183 176 169 166 139 194 199 179 244 198 142 179 172 174 160 184 154 179 271 151 91 182 200 29 121
251 260 252 243 230 225 213 210 211 207 203 177 196 173 176 193 282 305 274 265 198 225 153 194 192 178 183 158 210 168 182 227 153 196 152 208 170 177 177 204 254 355 104 137 135 129 150